Location: Gdynia
(54.5193°N, 18.5395°E)
Time: 22:27:25
(UTC+01:00)

ISS - Pass Details

Date: 29 January 2019
Orbit: 403 x 411 km, 51.6° (Epoch: 20 February)

Event Time Altitude Azimuth Distance (km) Brightness Sun altitude
Rises 19:52:52 0° 270° (W) 2,341 1.1 -30.9°
Reaches altitude 10° 19:55:00 10° 264° (W) 1,481 -0.2 -31.2°
Enters shadow 19:55:07 11° 264° (W) 1,435 -0.3 -31.2°
